Year,Month,Day,Hour,Minute,Value (Times are PST for temperature in C)
2015,09,26,00,00,9.00
2015,09,26,00,01,9.00
2015,09,26,00,02,9.00
2015,09,26,00,03,9.00
2015,09,26,00,04,9.00
2015,09,26,00,05,8.90
2015,09,26,00,06,8.90
2015,09,26,00,07,8.90
2015,09,26,00,08,8.90
2015,09,26,00,09,8.90
2015,09,26,00,10,8.90
2015,09,26,00,11,8.90
2015,09,26,00,12,8.90
2015,09,26,00,13,8.90
2015,09,26,00,14,8.90
2015,09,26,00,15,8.90
2015,09,26,00,16,8.90
2015,09,26,00,17,8.90
2015,09,26,00,18,8.90
2015,09,26,00,19,8.90
2015,09,26,00,20,8.90
2015,09,26,00,21,8.90
2015,09,26,00,22,8.90
2015,09,26,00,23,8.90
2015,09,26,00,24,8.90
2015,09,26,00,25,8.90
2015,09,26,00,26,8.90
2015,09,26,00,27,8.90
2015,09,26,00,28,8.90
2015,09,26,00,29,8.90
2015,09,26,00,30,8.90
2015,09,26,00,31,8.90
2015,09,26,00,32,8.90
2015,09,26,00,33,8.90
2015,09,26,00,34,8.90
2015,09,26,00,35,8.90
2015,09,26,00,36,8.90
2015,09,26,00,37,8.90
2015,09,26,00,38,8.90
2015,09,26,00,39,8.90
2015,09,26,00,40,9.00
2015,09,26,00,41,9.00
2015,09,26,00,42,9.00
2015,09,26,00,43,9.00
2015,09,26,00,44,9.00
2015,09,26,00,45,9.00
2015,09,26,00,46,9.10
2015,09,26,00,47,9.10
2015,09,26,00,48,9.10
2015,09,26,00,49,9.10
2015,09,26,00,50,9.10
2015,09,26,00,51,9.10
2015,09,26,00,52,9.10
2015,09,26,00,53,9.10
2015,09,26,00,54,9.10
2015,09,26,00,55,9.10
2015,09,26,00,56,9.10
2015,09,26,00,57,9.10
2015,09,26,00,58,9.10
2015,09,26,00,59,9.10
2015,09,26,01,00,9.10
2015,09,26,01,01,9.10
2015,09,26,01,02,9.10
2015,09,26,01,03,9.10
2015,09,26,01,04,9.10
2015,09,26,01,05,9.10
2015,09,26,01,06,9.20
2015,09,26,01,07,9.20
2015,09,26,01,08,9.20
2015,09,26,01,09,9.20
2015,09,26,01,10,9.20
2015,09,26,01,11,9.20
2015,09,26,01,12,9.20
2015,09,26,01,13,9.20
2015,09,26,01,14,9.20
2015,09,26,01,15,9.20
2015,09,26,01,16,9.20
2015,09,26,01,17,9.20
2015,09,26,01,18,9.20
2015,09,26,01,19,9.20
2015,09,26,01,20,9.30
2015,09,26,01,21,9.30
2015,09,26,01,22,9.30
2015,09,26,01,23,9.20
2015,09,26,01,24,9.20
2015,09,26,01,25,9.20
2015,09,26,01,26,9.20
2015,09,26,01,27,9.20
2015,09,26,01,28,9.20
2015,09,26,01,29,9.20
2015,09,26,01,30,9.20
2015,09,26,01,31,9.20
2015,09,26,01,32,9.30
2015,09,26,01,33,9.30
2015,09,26,01,34,9.30
2015,09,26,01,35,9.30
2015,09,26,01,36,9.30
2015,09,26,01,37,9.30
2015,09,26,01,38,9.30
2015,09,26,01,39,9.40
2015,09,26,01,40,9.40
2015,09,26,01,41,9.40
2015,09,26,01,42,9.40
2015,09,26,01,43,9.40
2015,09,26,01,44,9.40
2015,09,26,01,45,9.40
2015,09,26,01,46,9.40
2015,09,26,01,47,9.40
2015,09,26,01,48,9.40
2015,09,26,01,49,9.40
2015,09,26,01,50,9.40
2015,09,26,01,51,9.40
2015,09,26,01,52,9.40
2015,09,26,01,53,9.40
2015,09,26,01,54,9.40
2015,09,26,01,55,9.50
2015,09,26,01,56,9.40
2015,09,26,01,57,9.40
2015,09,26,01,58,9.40
2015,09,26,01,59,9.40
2015,09,26,02,00,9.40
2015,09,26,02,01,9.40
2015,09,26,02,02,9.40
2015,09,26,02,03,9.40
2015,09,26,02,04,9.40
2015,09,26,02,05,9.40
2015,09,26,02,06,9.40
2015,09,26,02,07,9.40
2015,09,26,02,08,9.40
2015,09,26,02,09,9.40
2015,09,26,02,10,9.40
2015,09,26,02,11,9.50
2015,09,26,02,12,9.50
2015,09,26,02,13,9.50
2015,09,26,02,14,9.50
2015,09,26,02,15,9.50
2015,09,26,02,16,9.50
2015,09,26,02,17,9.50
2015,09,26,02,18,9.50
2015,09,26,02,19,9.50
2015,09,26,02,20,9.50
2015,09,26,02,21,9.50
2015,09,26,02,22,9.50
2015,09,26,02,23,9.50
2015,09,26,02,24,9.50
2015,09,26,02,25,9.50
2015,09,26,02,26,9.50
2015,09,26,02,27,9.50
2015,09,26,02,28,9.50
2015,09,26,02,29,9.50
2015,09,26,02,30,9.50
2015,09,26,02,31,9.50
2015,09,26,02,32,9.50
2015,09,26,02,33,9.50
2015,09,26,02,34,9.50
2015,09,26,02,35,9.50
2015,09,26,02,36,9.50
2015,09,26,02,37,9.50
2015,09,26,02,38,9.50
2015,09,26,02,39,9.50
2015,09,26,02,40,9.50
2015,09,26,02,41,9.50
2015,09,26,02,42,9.50
2015,09,26,02,43,9.50
2015,09,26,02,44,9.40
2015,09,26,02,45,9.40
2015,09,26,02,46,9.40
2015,09,26,02,47,9.40
2015,09,26,02,48,9.40
2015,09,26,02,49,9.40
2015,09,26,02,50,9.40
2015,09,26,02,51,9.40
2015,09,26,02,52,9.40
2015,09,26,02,53,9.40
2015,09,26,02,54,9.40
2015,09,26,02,55,9.30
2015,09,26,02,56,9.30
2015,09,26,02,57,9.30
2015,09,26,02,58,9.30
2015,09,26,02,59,9.20
2015,09,26,03,00,9.20
2015,09,26,03,01,9.20
2015,09,26,03,02,9.20
2015,09,26,03,03,9.20
2015,09,26,03,04,9.10
2015,09,26,03,05,9.10
2015,09,26,03,06,9.10
2015,09,26,03,07,9.10
2015,09,26,03,08,9.10
2015,09,26,03,09,9.10
2015,09,26,03,10,9.10
2015,09,26,03,11,9.10
2015,09,26,03,12,9.10
2015,09,26,03,13,9.10
2015,09,26,03,14,9.10
2015,09,26,03,15,9.10
2015,09,26,03,16,9.10
2015,09,26,03,17,9.10
2015,09,26,03,18,9.00
2015,09,26,03,19,9.00
2015,09,26,03,20,9.00
2015,09,26,03,21,9.00
2015,09,26,03,22,9.00
2015,09,26,03,23,9.00
2015,09,26,03,24,9.00
2015,09,26,03,25,9.00
2015,09,26,03,26,9.00
2015,09,26,03,27,9.00
2015,09,26,03,28,8.90
2015,09,26,03,29,8.90
2015,09,26,03,30,8.90
2015,09,26,03,31,8.90
2015,09,26,03,32,8.80
2015,09,26,03,33,8.80
2015,09,26,03,34,8.70
2015,09,26,03,35,8.70
2015,09,26,03,36,8.60
2015,09,26,03,37,8.60
2015,09,26,03,38,8.60
2015,09,26,03,39,8.60
2015,09,26,03,40,8.60
2015,09,26,03,41,8.50
2015,09,26,03,42,8.50
2015,09,26,03,43,8.50
2015,09,26,03,44,8.50
2015,09,26,03,45,8.40
2015,09,26,03,46,8.40
2015,09,26,03,47,8.40
2015,09,26,03,48,8.40
2015,09,26,03,49,8.40
2015,09,26,03,50,8.40
2015,09,26,03,51,8.40
2015,09,26,03,52,8.30
2015,09,26,03,53,8.30
2015,09,26,03,54,8.30
2015,09,26,03,55,8.30
2015,09,26,03,56,8.30
2015,09,26,03,57,8.30
2015,09,26,03,58,8.30
2015,09,26,03,59,8.30
2015,09,26,04,00,8.30
2015,09,26,04,01,8.30
2015,09,26,04,02,8.30
2015,09,26,04,03,8.30
2015,09,26,04,04,8.30
2015,09,26,04,05,8.30
2015,09,26,04,06,8.30
2015,09,26,05,02,7.40
2015,09,26,05,03,7.40
2015,09,26,05,04,7.40
2015,09,26,05,05,7.40
2015,09,26,05,06,7.40
2015,09,26,05,07,7.40
2015,09,26,05,08,7.30
2015,09,26,05,09,7.30
2015,09,26,05,10,7.30
2015,09,26,05,11,7.20
2015,09,26,05,12,7.20
2015,09,26,05,13,7.20
2015,09,26,05,14,7.20
2015,09,26,05,15,7.10
2015,09,26,05,16,7.10
2015,09,26,05,17,7.10
2015,09,26,05,18,7.00
2015,09,26,05,19,7.00
2015,09,26,05,20,6.90
2015,09,26,05,21,6.90
2015,09,26,05,22,6.80
2015,09,26,05,23,6.80
2015,09,26,05,24,6.80
2015,09,26,05,25,6.80
2015,09,26,05,26,6.80
2015,09,26,05,27,6.80
2015,09,26,05,28,6.80
2015,09,26,05,29,6.80
2015,09,26,05,30,6.80
2015,09,26,05,31,6.80
2015,09,26,05,32,6.80
2015,09,26,05,33,6.80
2015,09,26,05,34,6.80
2015,09,26,05,35,6.80
2015,09,26,05,36,6.80
2015,09,26,05,37,6.80
2015,09,26,05,38,6.80
2015,09,26,05,39,6.80
2015,09,26,05,40,6.80
2015,09,26,05,41,6.70
2015,09,26,05,42,6.70
2015,09,26,05,43,6.70
2015,09,26,05,44,6.70
2015,09,26,05,45,6.70
2015,09,26,05,46,6.70
2015,09,26,05,47,6.60
2015,09,26,05,48,6.60
2015,09,26,05,49,6.60
2015,09,26,05,50,6.60
2015,09,26,05,51,6.60
2015,09,26,05,52,6.60
2015,09,26,05,53,6.60
2015,09,26,05,54,6.60
2015,09,26,05,55,6.70
2015,09,26,05,56,6.70
2015,09,26,05,57,6.80
2015,09,26,05,58,6.80
2015,09,26,05,59,6.80
2015,09,26,06,00,6.80
2015,09,26,06,01,6.80
2015,09,26,06,02,6.80
2015,09,26,06,03,6.80
2015,09,26,06,04,6.80
2015,09,26,06,05,6.70
2015,09,26,06,06,6.70
2015,09,26,06,07,6.70
2015,09,26,06,08,6.70
2015,09,26,06,09,6.70
2015,09,26,06,10,6.60
2015,09,26,06,11,6.60
2015,09,26,06,12,6.60
2015,09,26,06,13,6.50
2015,09,26,06,14,6.50
2015,09,26,06,15,6.50
2015,09,26,06,16,6.40
2015,09,26,06,17,6.40
2015,09,26,06,18,6.40
2015,09,26,06,19,6.40
2015,09,26,06,20,6.40
2015,09,26,06,21,6.40
2015,09,26,06,22,6.40
2015,09,26,06,23,6.40
2015,09,26,06,24,6.40
2015,09,26,06,25,6.40
2015,09,26,06,26,6.40
2015,09,26,06,27,6.40
2015,09,26,06,28,6.40
2015,09,26,06,29,6.40
2015,09,26,06,30,6.30
2015,09,26,06,31,6.30
2015,09,26,06,32,6.30
2015,09,26,06,33,6.30
2015,09,26,06,34,6.40
2015,09,26,06,35,6.40
2015,09,26,06,36,6.40
2015,09,26,06,37,6.40
2015,09,26,06,38,6.40
2015,09,26,06,39,6.40
2015,09,26,06,40,6.40
2015,09,26,06,41,6.40
2015,09,26,06,42,6.40
2015,09,26,06,43,6.40
2015,09,26,06,44,6.40
2015,09,26,06,45,6.40
2015,09,26,06,46,6.40
2015,09,26,06,47,6.40
2015,09,26,06,48,6.40
2015,09,26,06,49,6.40
2015,09,26,06,50,6.40
2015,09,26,06,51,6.40
2015,09,26,06,52,6.40
2015,09,26,06,53,6.40
2015,09,26,06,54,6.50
2015,09,26,06,55,6.50
2015,09,26,06,56,6.40
2015,09,26,06,57,6.40
2015,09,26,06,58,6.40
2015,09,26,06,59,6.40
2015,09,26,07,00,6.40
2015,09,26,07,01,6.40
2015,09,26,07,02,6.40
2015,09,26,07,03,6.30
2015,09,26,07,04,6.30
2015,09,26,07,05,6.30
2015,09,26,07,06,6.30
2015,09,26,07,07,6.30
2015,09,26,07,08,6.30
2015,09,26,07,09,6.30
2015,09,26,07,10,6.30
2015,09,26,07,11,6.30
2015,09,26,07,12,6.30
2015,09,26,07,13,6.30
2015,09,26,07,14,6.30
2015,09,26,07,15,6.30
2015,09,26,07,16,6.30
2015,09,26,07,17,6.30
2015,09,26,07,18,6.20
2015,09,26,07,19,6.20
2015,09,26,07,20,6.20
2015,09,26,07,21,6.10
2015,09,26,07,22,6.10
2015,09,26,07,23,6.10
2015,09,26,07,24,6.00
2015,09,26,07,25,6.00
2015,09,26,07,26,6.00
2015,09,26,07,27,5.90
2015,09,26,07,28,5.90
2015,09,26,07,29,5.90
2015,09,26,07,30,5.90
2015,09,26,07,31,5.90
2015,09,26,07,32,5.90
2015,09,26,07,33,5.90
2015,09,26,07,34,5.90
2015,09,26,07,35,5.90
2015,09,26,07,36,5.90
2015,09,26,07,37,6.00
2015,09,26,07,38,6.00
2015,09,26,07,39,6.00
2015,09,26,07,40,6.00
2015,09,26,07,41,6.00
2015,09,26,07,42,6.00
2015,09,26,07,43,6.00
2015,09,26,07,44,6.00
2015,09,26,07,45,6.00
2015,09,26,07,46,6.00
2015,09,26,07,47,6.00
2015,09,26,07,48,6.00
2015,09,26,07,49,6.00
2015,09,26,07,50,5.90
2015,09,26,07,51,5.90
2015,09,26,07,52,5.90
2015,09,26,07,53,5.90
2015,09,26,07,54,5.90
2015,09,26,07,55,5.80
2015,09,26,07,56,5.80
2015,09,26,07,57,5.80
2015,09,26,07,58,5.80
2015,09,26,07,59,5.80
2015,09,26,08,00,5.90
2015,09,26,08,01,6.00
2015,09,26,08,02,6.00
2015,09,26,08,03,6.10
2015,09,26,08,04,6.10
2015,09,26,08,05,6.10
2015,09,26,08,06,6.20
2015,09,26,08,07,6.20
2015,09,26,08,08,6.20
2015,09,26,08,09,6.20
2015,09,26,08,10,6.20
2015,09,26,08,11,6.20
2015,09,26,08,12,6.20
2015,09,26,08,13,6.20
2015,09,26,08,14,6.20
2015,09,26,08,15,6.20
2015,09,26,08,16,6.20
2015,09,26,08,17,6.20
2015,09,26,08,18,6.20
2015,09,26,08,19,6.20
2015,09,26,08,20,6.20
2015,09,26,08,21,6.20
2015,09,26,08,22,6.20
2015,09,26,08,23,6.20
2015,09,26,08,24,6.20
2015,09,26,08,25,6.20
2015,09,26,08,26,6.20
2015,09,26,08,27,6.30
2015,09,26,08,28,6.30
2015,09,26,08,29,6.40
2015,09,26,08,30,6.40
2015,09,26,08,31,6.40
2015,09,26,08,32,6.50
2015,09,26,08,33,6.50
2015,09,26,08,34,6.60
2015,09,26,08,35,6.60
2015,09,26,08,36,6.60
2015,09,26,08,37,6.60
2015,09,26,08,38,6.60
2015,09,26,08,39,6.70
2015,09,26,08,40,6.70
2015,09,26,08,41,6.70
2015,09,26,08,42,6.80
2015,09,26,08,43,6.90
2015,09,26,08,44,7.00
2015,09,26,08,45,7.10
2015,09,26,08,46,7.10
2015,09,26,08,47,7.20
2015,09,26,08,48,7.20
2015,09,26,08,49,7.20
2015,09,26,08,50,7.30
2015,09,26,08,51,7.30
2015,09,26,08,52,7.30
2015,09,26,08,53,7.40
2015,09,26,08,54,7.50
2015,09,26,08,55,7.50
2015,09,26,08,56,7.60
2015,09,26,08,57,7.60
2015,09,26,08,58,7.60
2015,09,26,08,59,7.70
2015,09,26,09,00,7.70
2015,09,26,09,01,7.70
2015,09,26,09,02,7.80
2015,09,26,09,03,7.80
2015,09,26,09,04,7.80
2015,09,26,09,05,7.80
2015,09,26,09,06,7.80
2015,09,26,09,07,7.90
2015,09,26,09,08,8.00
2015,09,26,09,09,8.10
2015,09,26,09,10,8.10
2015,09,26,09,11,8.20
2015,09,26,09,12,8.20
2015,09,26,09,13,8.30
2015,09,26,09,14,8.30
2015,09,26,09,15,8.30
2015,09,26,09,16,8.40
2015,09,26,09,17,8.40
2015,09,26,09,18,8.50
2015,09,26,09,19,8.60
2015,09,26,09,20,8.60
2015,09,26,09,21,8.80
2015,09,26,09,22,8.90
2015,09,26,09,23,8.90
2015,09,26,09,24,9.00
2015,09,26,09,25,9.10
2015,09,26,09,26,9.10
2015,09,26,09,27,9.10
2015,09,26,09,28,9.20
2015,09,26,09,29,9.30
2015,09,26,09,30,9.30
2015,09,26,09,31,9.40
2015,09,26,09,32,9.40
2015,09,26,09,33,9.50
2015,09,26,09,34,9.60
2015,09,26,09,35,9.70
2015,09,26,09,36,9.70
2015,09,26,09,37,9.80
2015,09,26,09,38,9.80
2015,09,26,09,39,9.90
2015,09,26,09,40,9.90
2015,09,26,09,41,9.90
2015,09,26,09,42,10.00
2015,09,26,09,43,10.00
2015,09,26,09,44,10.10
2015,09,26,09,45,10.10
2015,09,26,09,46,10.20
2015,09,26,09,47,10.30
2015,09,26,09,48,10.30
2015,09,26,09,49,10.30
2015,09,26,09,50,10.30
2015,09,26,09,51,10.30
2015,09,26,09,52,10.30
2015,09,26,09,53,10.40
2015,09,26,09,54,10.50
2015,09,26,09,55,10.50
2015,09,26,09,56,10.60
2015,09,26,09,57,10.70
2015,09,26,09,58,10.70
2015,09,26,09,59,10.80
2015,09,26,10,00,10.90
2015,09,26,10,01,11.00
2015,09,26,10,02,11.10
2015,09,26,10,03,11.10
2015,09,26,10,04,11.20
2015,09,26,10,05,11.20
2015,09,26,10,06,11.20
2015,09,26,10,07,11.20
2015,09,26,10,08,11.30
2015,09,26,10,09,11.30
2015,09,26,10,10,11.30
2015,09,26,10,11,11.50
2015,09,26,10,12,11.50
2015,09,26,10,13,11.60
2015,09,26,10,14,11.60
2015,09,26,10,15,11.60
2015,09,26,10,16,11.70
2015,09,26,10,17,11.70
2015,09,26,10,18,11.70
2015,09,26,10,19,11.80
2015,09,26,10,20,11.80
2015,09,26,10,21,11.80
2015,09,26,10,22,11.90
2015,09,26,10,23,11.90
2015,09,26,10,24,11.90
2015,09,26,10,25,12.00
2015,09,26,10,26,12.00
2015,09,26,10,27,12.00
2015,09,26,10,28,12.00
2015,09,26,10,29,12.10
2015,09,26,10,30,12.20
2015,09,26,10,31,12.20
2015,09,26,10,32,12.30
2015,09,26,10,33,12.30
2015,09,26,10,34,12.30
2015,09,26,10,35,12.40
2015,09,26,10,36,12.40
2015,09,26,10,37,12.40
2015,09,26,10,38,12.40
2015,09,26,10,39,12.50
2015,09,26,10,40,12.50
2015,09,26,10,41,12.40
2015,09,26,10,42,12.40
2015,09,26,10,43,12.40
2015,09,26,10,44,12.40
2015,09,26,10,45,12.50
2015,09,26,10,46,12.50
2015,09,26,10,47,12.60
2015,09,26,10,48,12.60
2015,09,26,10,49,12.70
2015,09,26,10,50,12.70
2015,09,26,10,51,12.80
2015,09,26,10,52,12.80
2015,09,26,10,53,12.80
2015,09,26,10,54,12.80
2015,09,26,10,55,12.80
2015,09,26,10,56,12.80
2015,09,26,10,57,12.80
2015,09,26,10,58,12.70
2015,09,26,10,59,12.70
2015,09,26,11,00,12.70
2015,09,26,11,01,12.70
2015,09,26,11,02,12.80
2015,09,26,11,03,12.70
2015,09,26,11,04,12.80
2015,09,26,11,05,12.80
2015,09,26,11,06,12.80
2015,09,26,11,07,12.80
2015,09,26,11,08,12.90
2015,09,26,11,09,13.00
2015,09,26,11,10,13.10
2015,09,26,11,11,13.30
2015,09,26,11,12,13.30
2015,09,26,11,13,13.40
2015,09,26,11,14,13.40
2015,09,26,11,15,13.40
2015,09,26,11,16,13.40
2015,09,26,11,17,13.40
2015,09,26,11,18,13.50
2015,09,26,11,19,13.50
2015,09,26,11,20,13.50
2015,09,26,11,21,13.50
2015,09,26,11,22,13.50
2015,09,26,11,23,13.60
2015,09,26,11,24,13.60
2015,09,26,11,25,13.60
2015,09,26,11,26,13.70
2015,09,26,11,27,13.70
2015,09,26,11,28,13.70
2015,09,26,11,29,13.70
2015,09,26,11,30,13.60
2015,09,26,11,31,13.60
2015,09,26,11,32,13.60
2015,09,26,11,33,13.60
2015,09,26,11,34,13.60
2015,09,26,11,35,13.50
2015,09,26,11,36,13.40
2015,09,26,11,37,13.40
2015,09,26,11,38,13.30
2015,09,26,11,39,13.30
2015,09,26,11,40,13.30
2015,09,26,11,41,13.30
2015,09,26,11,42,13.40
2015,09,26,11,43,13.40
2015,09,26,11,44,13.50
2015,09,26,11,45,13.50
2015,09,26,11,46,13.60
2015,09,26,11,47,13.60
2015,09,26,11,48,13.60
2015,09,26,11,49,13.70
2015,09,26,11,50,13.70
2015,09,26,11,51,13.80
2015,09,26,11,52,13.80
2015,09,26,11,53,13.80
2015,09,26,11,54,13.90
2015,09,26,11,55,13.90
2015,09,26,11,56,13.90
2015,09,26,11,57,13.90
2015,09,26,11,58,13.90
2015,09,26,11,59,13.90
2015,09,26,12,00,13.80
2015,09,26,12,01,13.80
2015,09,26,12,02,13.80
2015,09,26,12,03,13.80
2015,09,26,12,04,13.80
2015,09,26,12,05,13.80
2015,09,26,12,06,13.80
2015,09,26,12,07,13.80
2015,09,26,12,08,13.80
2015,09,26,12,09,13.70
2015,09,26,12,10,13.70
2015,09,26,12,11,13.70
2015,09,26,12,12,13.70
2015,09,26,12,13,13.60
2015,09,26,12,14,13.60
2015,09,26,12,15,13.60
2015,09,26,12,16,13.70
2015,09,26,12,17,13.70
2015,09,26,12,18,13.80
2015,09,26,12,19,13.80
2015,09,26,12,20,13.80
2015,09,26,12,21,13.80
2015,09,26,12,22,13.70
2015,09,26,12,23,13.70
2015,09,26,12,24,13.60
2015,09,26,12,25,13.60
2015,09,26,12,26,13.60
2015,09,26,12,27,13.70
2015,09,26,12,28,13.80
2015,09,26,12,29,13.80
2015,09,26,12,30,13.90
2015,09,26,12,31,14.00
2015,09,26,12,32,14.10
2015,09,26,12,33,14.10
2015,09,26,12,34,14.10
2015,09,26,12,35,14.10
2015,09,26,12,36,14.10
2015,09,26,12,37,14.10
2015,09,26,12,38,14.10
2015,09,26,12,39,14.10
2015,09,26,12,40,14.10
2015,09,26,12,41,14.10
2015,09,26,12,42,14.20
2015,09,26,12,43,14.20
2015,09,26,12,44,14.30
2015,09,26,12,45,14.20
2015,09,26,12,46,14.20
2015,09,26,12,47,14.30
2015,09,26,12,48,14.30
2015,09,26,12,49,14.40
2015,09,26,12,50,14.50
2015,09,26,12,51,14.50
2015,09,26,12,52,14.40
2015,09,26,12,53,14.40
2015,09,26,12,54,14.40
2015,09,26,12,55,14.30
2015,09,26,12,56,14.30
2015,09,26,12,57,14.30
2015,09,26,12,58,14.30
2015,09,26,12,59,14.30
2015,09,26,13,00,14.30
2015,09,26,13,01,14.30
2015,09,26,13,02,14.30
2015,09,26,13,03,14.20
2015,09,26,13,04,14.20
2015,09,26,13,05,14.20
2015,09,26,13,06,14.20
2015,09,26,13,07,14.10
2015,09,26,13,08,14.10
2015,09,26,13,09,14.10
2015,09,26,13,10,14.10
2015,09,26,13,11,14.10
2015,09,26,13,12,14.10
2015,09,26,13,13,14.10
2015,09,26,13,14,14.10
2015,09,26,13,15,14.10
2015,09,26,13,16,14.10
2015,09,26,13,17,14.10
2015,09,26,13,18,14.10
2015,09,26,13,19,14.10
2015,09,26,13,20,14.20
2015,09,26,13,21,14.20
2015,09,26,13,22,14.30
2015,09,26,13,23,14.30
2015,09,26,13,24,14.30
2015,09,26,13,25,14.30
2015,09,26,13,26,14.30
2015,09,26,13,27,14.30
2015,09,26,13,28,14.30
2015,09,26,13,29,14.30
2015,09,26,13,30,14.30
2015,09,26,13,31,14.30
2015,09,26,13,32,14.20
2015,09,26,13,33,14.20
2015,09,26,13,34,14.10
2015,09,26,13,35,14.10
2015,09,26,13,36,14.10
2015,09,26,13,37,14.10
2015,09,26,13,38,14.10
2015,09,26,13,39,14.10
2015,09,26,13,40,14.10
2015,09,26,13,41,14.10
2015,09,26,13,42,14.20
2015,09,26,13,43,14.20
2015,09,26,13,44,14.20
2015,09,26,13,45,14.20
2015,09,26,13,46,14.20
2015,09,26,13,47,14.30
2015,09,26,13,48,14.30
2015,09,26,13,49,14.30
2015,09,26,13,50,14.30
2015,09,26,13,51,14.40
2015,09,26,13,52,14.30
2015,09,26,13,53,14.30
2015,09,26,13,54,14.40
2015,09,26,13,55,14.40
2015,09,26,13,56,14.40
2015,09,26,13,57,14.50
2015,09,26,13,58,14.40
2015,09,26,13,59,14.40
2015,09,26,14,00,14.40
2015,09,26,14,01,14.40
2015,09,26,14,02,14.30
2015,09,26,14,03,14.40
2015,09,26,14,04,14.40
2015,09,26,14,05,14.40
2015,09,26,14,06,14.40
2015,09,26,14,07,14.50
2015,09,26,14,08,14.50
2015,09,26,14,09,14.40
2015,09,26,14,10,14.40
2015,09,26,14,11,14.50
2015,09,26,14,12,14.50
2015,09,26,14,13,14.60
2015,09,26,14,14,14.60
2015,09,26,14,15,14.60
2015,09,26,14,16,14.60
2015,09,26,14,17,14.60
2015,09,26,14,18,14.70
2015,09,26,14,19,14.70
2015,09,26,14,20,14.70
2015,09,26,14,21,14.70
2015,09,26,14,22,14.80
2015,09,26,14,23,14.80
2015,09,26,14,24,14.80
2015,09,26,14,25,14.80
2015,09,26,14,26,14.80
2015,09,26,14,27,14.80
2015,09,26,14,28,14.90
2015,09,26,14,29,14.90
2015,09,26,14,30,14.90
2015,09,26,14,31,14.90
2015,09,26,14,32,14.90
2015,09,26,14,33,14.90
2015,09,26,14,34,15.00
2015,09,26,14,35,15.00
2015,09,26,14,36,15.10
2015,09,26,14,37,15.20
2015,09,26,14,38,15.20
2015,09,26,14,39,15.30
2015,09,26,14,40,15.30
2015,09,26,14,41,15.30
2015,09,26,14,42,15.40
2015,09,26,14,43,15.40
2015,09,26,14,44,15.40
2015,09,26,14,45,15.50
2015,09,26,14,46,15.50
2015,09,26,14,47,15.50
2015,09,26,14,48,15.40
2015,09,26,14,49,15.40
2015,09,26,14,50,15.40
2015,09,26,14,51,15.40
2015,09,26,14,52,15.30
2015,09,26,14,53,15.30
2015,09,26,14,54,15.30
2015,09,26,14,55,15.30
2015,09,26,14,56,15.30
2015,09,26,14,57,15.20
2015,09,26,14,58,15.20
2015,09,26,14,59,15.20
2015,09,26,15,00,15.20
2015,09,26,15,01,15.20
2015,09,26,15,02,15.20
2015,09,26,15,03,15.30
2015,09,26,15,04,15.30
2015,09,26,15,05,15.30
2015,09,26,15,06,15.30
2015,09,26,15,07,15.30
2015,09,26,15,08,15.30
2015,09,26,15,09,15.30
2015,09,26,15,10,15.30
2015,09,26,15,11,15.30
2015,09,26,15,12,15.30
2015,09,26,15,13,15.30
2015,09,26,15,14,15.40
2015,09,26,15,15,15.30
2015,09,26,15,16,15.30
2015,09,26,15,17,15.30
2015,09,26,15,18,15.30
2015,09,26,15,19,15.30
2015,09,26,15,20,15.20
2015,09,26,15,21,15.20
2015,09,26,15,22,15.20
2015,09,26,15,23,15.20
2015,09,26,15,24,15.20
2015,09,26,15,25,15.20
2015,09,26,15,26,15.20
2015,09,26,15,27,15.10
2015,09,26,15,28,15.20
2015,09,26,15,29,15.20
2015,09,26,15,30,15.20
2015,09,26,15,31,15.20
2015,09,26,15,32,15.20
2015,09,26,15,33,15.20
2015,09,26,15,34,15.20
2015,09,26,15,35,15.20
2015,09,26,15,36,15.20
2015,09,26,15,37,15.10
2015,09,26,15,38,15.10
2015,09,26,15,39,15.10
2015,09,26,15,40,15.10
2015,09,26,15,41,15.20
2015,09,26,15,42,15.20
2015,09,26,15,43,15.20
2015,09,26,15,44,15.20
2015,09,26,15,45,15.20
2015,09,26,15,46,15.20
2015,09,26,15,47,15.20
2015,09,26,15,48,15.20
2015,09,26,15,49,15.30
2015,09,26,15,50,15.20
2015,09,26,15,51,15.20
2015,09,26,15,52,15.20
2015,09,26,15,53,15.20
2015,09,26,15,54,15.20
2015,09,26,15,55,15.20
2015,09,26,15,56,15.10
2015,09,26,15,57,15.10
2015,09,26,15,58,15.10
2015,09,26,15,59,15.00
2015,09,26,16,00,15.00
2015,09,26,16,01,15.00
2015,09,26,16,02,15.00
2015,09,26,16,03,15.00
2015,09,26,16,04,15.10
2015,09,26,16,05,15.10
2015,09,26,16,06,15.10
2015,09,26,16,07,15.10
2015,09,26,16,08,15.20
2015,09,26,16,09,15.20
2015,09,26,16,10,15.20
2015,09,26,16,11,15.30
2015,09,26,16,12,15.30
2015,09,26,16,13,15.30
2015,09,26,16,14,15.30
2015,09,26,16,15,15.30
2015,09,26,16,16,15.30
2015,09,26,16,17,15.30
2015,09,26,16,18,15.30
2015,09,26,16,19,15.30
2015,09,26,16,20,15.30
2015,09,26,16,21,15.30
2015,09,26,16,22,15.30
2015,09,26,16,23,15.30
2015,09,26,16,24,15.30
2015,09,26,16,25,15.20
2015,09,26,16,26,15.20
2015,09,26,16,27,15.20
2015,09,26,16,28,15.20
2015,09,26,16,29,15.30
2015,09,26,16,30,15.30
2015,09,26,16,31,15.30
2015,09,26,16,32,15.30
2015,09,26,16,33,15.30
2015,09,26,16,34,15.30
2015,09,26,16,35,15.30
2015,09,26,16,36,15.30
2015,09,26,16,37,15.30
2015,09,26,16,38,15.20
2015,09,26,16,39,15.20
2015,09,26,16,40,15.20
2015,09,26,16,41,15.20
2015,09,26,16,42,15.30
2015,09,26,16,43,15.30
2015,09,26,16,44,15.30
2015,09,26,16,45,15.30
2015,09,26,16,46,15.20
2015,09,26,16,47,15.20
2015,09,26,16,48,15.20
2015,09,26,16,49,15.10
2015,09,26,16,50,15.00
2015,09,26,16,51,14.90
2015,09,26,16,52,14.80
2015,09,26,16,53,14.60
2015,09,26,16,54,14.60
2015,09,26,16,55,14.50
2015,09,26,16,56,14.40
2015,09,26,16,57,14.20
2015,09,26,16,58,14.20
2015,09,26,16,59,14.10
2015,09,26,17,00,13.90
2015,09,26,17,01,13.80
2015,09,26,17,02,13.60
2015,09,26,17,03,13.50
2015,09,26,17,04,13.40
2015,09,26,17,05,13.20
2015,09,26,17,06,13.10
2015,09,26,17,07,13.00
2015,09,26,17,08,12.90
2015,09,26,17,09,12.80
2015,09,26,17,10,12.70
2015,09,26,17,11,12.60
2015,09,26,17,12,12.50
2015,09,26,17,13,12.40
2015,09,26,17,14,12.30
2015,09,26,17,15,12.10
2015,09,26,17,16,11.90
2015,09,26,17,17,11.80
2015,09,26,17,18,11.70
2015,09,26,17,19,11.60
2015,09,26,17,20,11.40
2015,09,26,17,21,11.30
2015,09,26,17,22,11.20
2015,09,26,17,23,11.10
2015,09,26,17,24,11.10
2015,09,26,17,25,11.00
2015,09,26,17,26,11.00
2015,09,26,17,27,11.20
2015,09,26,17,28,11.40
2015,09,26,17,29,11.50
2015,09,26,17,30,11.60
2015,09,26,17,31,11.80
2015,09,26,17,32,12.00
2015,09,26,17,33,12.00
2015,09,26,17,34,11.90
2015,09,26,17,35,11.90
2015,09,26,17,36,11.80
2015,09,26,17,37,11.70
2015,09,26,17,38,11.60
2015,09,26,17,39,11.70
2015,09,26,17,40,11.70
2015,09,26,17,41,11.70
2015,09,26,17,42,11.60
2015,09,26,17,43,11.60
2015,09,26,17,44,11.50
2015,09,26,17,45,11.30
2015,09,26,17,46,11.30
2015,09,26,17,47,11.30
2015,09,26,17,48,11.30
2015,09,26,17,49,11.40
2015,09,26,17,50,11.40
2015,09,26,17,51,11.50
2015,09,26,17,52,11.60
2015,09,26,17,53,11.60
2015,09,26,17,54,11.60
2015,09,26,17,55,11.70
2015,09,26,17,56,11.70
2015,09,26,17,57,11.70
2015,09,26,17,58,11.80
2015,09,26,17,59,11.90
2015,09,26,18,00,12.00
2015,09,26,18,01,12.20
2015,09,26,18,02,12.30
2015,09,26,18,03,12.50
2015,09,26,18,04,12.70
2015,09,26,18,05,12.80
2015,09,26,18,06,12.90
2015,09,26,18,07,13.00
2015,09,26,18,08,13.10
2015,09,26,18,09,13.20
2015,09,26,18,10,13.30
2015,09,26,18,11,13.30
2015,09,26,18,12,13.40
2015,09,26,18,13,13.40
2015,09,26,18,14,13.50
2015,09,26,18,15,13.60
2015,09,26,18,16,13.70
2015,09,26,18,17,13.70
2015,09,26,18,18,13.60
2015,09,26,18,19,13.60
2015,09,26,18,20,13.60
2015,09,26,18,21,13.60
2015,09,26,18,22,13.50
2015,09,26,18,23,13.50
2015,09,26,18,24,13.60
2015,09,26,18,25,13.60
2015,09,26,18,26,13.60
2015,09,26,18,27,13.60
2015,09,26,18,28,13.70
2015,09,26,18,29,13.70
2015,09,26,18,30,13.70
2015,09,26,18,31,13.70
2015,09,26,18,32,13.70
2015,09,26,18,33,13.60
2015,09,26,18,34,13.60
2015,09,26,18,35,13.60
2015,09,26,18,36,13.60
2015,09,26,18,37,13.50